Theta_e
333 331 332 333 327 331 332 327 325 324 334 343 326 322 333 331 321 320 332 341 343 347 350 346 345 345 344 344 342 342 341 343 344 344 344 342 343 347 349 351 351 342 336 335 336 338 337 337 337 339 339 336 336 336 334 334 335 333 332 333 334 336 337
330 333 333 334 330 335 331 321 330 332 330 340 333 323 331 332 322 323 335 342 342 343 346 346 347 347 345 344 343 343 343 344 344 343 343 343 343 345 348 350 345 336 333 336 337 337 337 338 339 339 339 337 337 336 334 335 334 333 333 334 333 334 335
331 336 334 331 331 338 331 324 336 330 317 324 331 326 325 324 320 322 330 337 340 341 344 345 347 347 347 346 344 344 344 343 344 342 343 343 343 344 347 350 347 338 333 336 337 337 338 339 340 340 338 338 337 335 334 334 333 332 334 334 332 331 333
332 335 333 326 327 333 335 331 335 335 328 326 326 328 326 320 320 322 324 332 340 348 349 346 346 347 345 345 343 343 342 343 343 341 342 342 343 345 346 348 349 338 332 335 336 336 338 339 339 340 338 338 337 335 334 334 333 332 334 334 331 331 334
329 328 328 329 330 330 331 330 328 328 332 330 325 327 327 325 326 327 326 330 341 360 363 347 345 345 342 340 341 342 342 341 341 340 340 342 344 347 348 348 345 335 331 335 337 337 338 339 339 339 339 338 338 335 334 334 333 332 333 332 330 332 334
321 327 335 334 334 333 332 332 327 324 328 328 322 321 326 331 331 330 330 327 338 363 366 348 346 344 339 338 338 340 341 340 341 341 341 342 346 348 347 345 341 334 332 335 337 338 338 339 339 339 339 339 337 336 334 334 333 332 333 331 330 332 332
329 328 334 330 328 336 337 333 334 331 331 327 319 318 325 326 324 330 332 325 336 362 361 347 346 343 337 336 337 338 339 340 341 340 340 343 346 347 344 342 338 333 334 336 336 338 338 338 339 338 339 338 337 336 334 333 333 331 332 331 329 331 331
353 336 339 337 336 339 332 333 339 331 329 328 326 332 337 324 318 326 325 320 338 369 365 347 342 341 338 335 336 337 338 339 340 340 342 345 345 346 346 344 338 333 335 338 337 337 338 338 338 338 338 338 337 336 335 334 333 332 331 330 329 330 330
341 337 337 340 346 346 335 335 339 332 331 331 328 337 338 325 323 329 324 322 342 367 362 348 342 340 339 337 336 337 339 340 340 341 345 347 348 348 350 350 347 343 340 338 336 337 338 337 337 338 338 338 337 336 336 335 334 332 330 328 327 328 329
323 325 328 336 346 346 337 336 336 333 331 327 326 330 324 321 328 331 328 331 343 356 354 348 347 343 339 341 338 338 340 340 341 344 346 347 349 349 350 352 353 350 343 337 336 337 338 337 337 338 338 338 337 337 336 335 333 331 329 327 326 326 327
324 330 344 355 349 336 329 330 331 331 330 328 334 331 322 327 333 331 339 346 341 346 351 347 347 344 340 342 342 340 342 341 343 347 347 348 349 350 352 353 353 351 345 340 337 337 338 338 337 338 338 336 336 335 334 333 331 331 330 327 326 324 325
340 351 358 353 339 330 327 327 328 331 331 330 331 327 326 336 330 325 350 360 337 339 352 346 345 344 340 342 342 340 343 343 343 346 347 348 351 352 353 354 352 351 350 344 337 336 339 339 338 338 336 334 333 333 333 332 330 329 328 327 326 325 326
344 347 340 336 332 331 330 329 328 331 331 328 328 330 336 340 326 322 344 354 338 339 348 344 342 342 338 340 341 339 340 342 342 345 349 350 352 351 351 350 350 350 352 345 336 336 339 338 337 336 334 332 332 331 330 330 328 327 327 326 325 325 326
337 338 332 333 331 327 328 329 330 331 330 330 329 332 338 338 331 332 340 344 343 343 344 344 343 340 338 340 340 339 340 341 342 346 349 349 350 350 348 348 349 351 350 341 334 336 337 335 336 335 332 331 330 328 327 327 327 327 327 327 326 326 326
337 342 336 333 332 330 327 327 331 331 330 331 330 331 335 333 332 339 340 339 346 350 347 347 343 340 341 341 340 341 340 342 344 345 346 346 348 348 346 346 348 349 348 338 332 335 335 333 334 333 331 331 329 327 325 325 326 327 327 328 327 327 328
331 340 333 329 334 330 324 326 334 332 329 330 330 333 336 331 331 336 331 333 349 352 342 340 339 338 340 341 343 344 342 342 345 345 344 344 346 346 345 345 346 348 348 340 333 333 333 333 333 332 331 330 328 328 326 325 327 327 328 329 328 328 329
332 341 332 328 332 327 325 337 340 331 331 332 331 336 339 338 343 342 333 340 355 349 338 338 340 340 342 344 344 342 341 342 342 343 345 343 345 346 343 344 348 347 343 336 332 332 333 333 333 332 331 330 329 328 326 326 328 328 328 329 327 328 330
333 344 339 331 330 325 331 349 343 328 331 331 328 333 339 342 351 353 348 352 352 343 339 342 342 342 344 341 339 338 338 341 342 342 344 343 345 346 343 345 349 341 333 332 331 332 333 333 333 333 332 331 330 329 327 326 327 328 328 327 325 327 329
335 344 341 329 328 334 343 350 341 331 332 332 331 335 340 342 350 355 350 346 344 342 343 341 339 340 339 337 338 338 336 338 340 341 342 344 348 348 346 349 345 334 329 332 332 332 333 333 333 332 332 332 331 329 328 327 326 327 328 326 325 327 328
331 332 332 328 335 350 353 344 336 334 337 336 331 332 337 342 346 349 348 346 346 345 342 338 338 340 339 338 340 338 335 335 336 336 339 343 350 350 345 341 337 332 330 332 331 332 333 332 333 332 331 332 331 329 329 328 327 327 328 327 327 328 327
332 331 333 333 332 336 344 344 337 334 336 334 332 331 336 344 344 342 345 349 347 343 340 338 340 341 341 342 341 338 336 335 335 337 338 338 341 342 335 331 332 331 331 332 331 332 332 332 332 332 331 332 332 330 329 328 328 328 328 327 328 328 327
333 329 327 329 324 325 340 350 344 338 336 340 350 346 340 346 346 341 344 346 343 341 340 338 340 341 342 346 347 342 337 336 339 340 336 330 331 333 330 330 332 331 331 332 331 331 332 332 331 332 332 333 332 330 329 329 328 328 328 328 328 329 328
331 323 321 327 325 326 343 352 344 338 336 345 357 345 336 343 345 337 339 342 340 339 339 340 343 341 341 351 356 347 338 338 340 341 337 331 329 330 331 331 331 331 331 331 331 331 331 330 330 331 332 332 332 331 331 330 329 329 329 329 329 328 327
330 326 326 328 325 331 352 358 345 336 334 341 341 330 333 349 346 336 339 341 339 341 342 343 345 343 347 357 356 345 339 337 336 336 336 333 329 330 330 329 329 331 331 330 330 330 329 328 329 330 332 332 332 332 332 332 331 331 331 330 329 327 326
330 328 326 326 328 341 354 347 340 337 333 333 331 330 342 352 345 341 345 343 342 348 347 345 347 350 354 353 345 338 338 339 337 333 330 329 329 328 329 329 329 330 329 328 329 328 327 328 329 330 332 332 331 330 330 331 330 329 329 330 330 328 325
330 331 330 327 331 346 346 336 341 342 331 330 337 345 352 352 345 346 346 345 349 353 350 353 357 355 349 341 338 338 340 342 341 334 328 327 329 329 329 330 329 327 327 326 327 327 327 328 329 330 330 330 328 328 329 329 328 327 327 330 331 327 324
330 328 327 326 331 343 340 333 342 346 339 343 352 351 347 348 350 348 343 344 350 350 348 352 355 351 342 336 337 342 344 342 338 332 327 327 328 330 332 329 326 325 326 326 326 327 327 328 328 327 327 326 326 327 329 328 327 327 328 330 331 327 324
331 326 328 338 347 347 340 340 350 351 347 352 357 349 342 343 347 349 346 343 347 350 350 348 347 347 344 340 341 343 341 338 335 331 327 325 326 329 329 327 326 326 326 327 327 326 327 326 325 325 325 326 327 329 328 327 327 329 330 331 332 328 324
344 341 345 354 357 348 341 351 360 353 343 344 346 345 343 342 343 346 346 343 347 352 352 347 343 343 342 341 344 345 341 339 338 333 328 324 325 326 325 326 326 326 325 326 326 326 325 325 324 324 325 326 328 328 328 327 328 329 330 330 331 328 324
345 343 340 342 346 342 337 342 348 344 338 338 340 342 344 347 349 351 348 347 347 347 347 344 343 345 348 347 347 346 344 343 338 332 326 324 324 324 325 326 326 325 326 327 326 326 326 326 326 327 327 327 328 329 329 329 328 328 328 330 331 328 324
334 334 334 335 337 336 334 334 337 338 335 335 341 347 345 343 347 351 351 347 344 341 341 339 339 344 348 345 343 345 344 342 339 332 326 324 324 324 324 325 326 326 327 327 327 327 327 327 329 330 329 329 329 330 331 329 325 324 327 329 329 326 322
337 337 339 339 334 332 334 336 336 336 335 334 339 343 339 337 340 343 342 340 338 337 336 334 333 338 342 339 340 342 340 340 340 334 324 323 325 325 324 326 327 326 326 327 327 328 327 328 329 329 329 329 328 329 330 327 324 324 328 328 327 324 322
346 335 329 331 332 331 334 335 335 335 334 336 337 338 338 338 339 338 337 336 336 334 333 333 334 337 342 344 343 341 341 343 341 332 327 327 327 325 325 327 327 327 327 327 328 328 328 328 327 328 328 327 327 328 329 326 324 326 327 326 325 323 322
344 338 332 334 336 334 333 333 334 335 336 338 338 337 338 338 338 339 340 338 336 332 329 333 339 342 341 340 341 342 344 341 333 328 328 330 329 328 328 328 328 327 327 327 327 328 327 326 326 327 329 327 327 328 328 325 324 325 324 323 323 323 322
339 343 345 347 347 340 334 334 337 338 341 341 337 333 334 335 338 341 340 334 335 335 330 327 333 341 340 333 334 344 342 331 325 327 328 329 329 329 329 329 328 328 327 327 328 327 325 324 326 328 328 326 325 326 326 324 323 324 324 323 322 322 322
335 337 340 345 346 339 334 337 340 341 341 341 335 330 332 335 339 343 340 335 334 339 338 329 324 329 332 326 329 341 339 327 322 325 327 327 327 327 328 328 328 327 327 327 327 326 324 325 325 326 326 325 324 324 324 325 324 325 324 323 322 323 323
333 334 337 342 342 338 336 337 337 337 339 339 335 333 335 338 337 336 338 338 333 334 341 337 326 324 324 323 326 332 331 326 324 323 323 325 326 325 326 326 326 326 325 325 325 326 326 326 326 325 326 325 324 323 324 326 327 327 326 324 323 322 322
Wind_Speed
4 7 4 4 5 1 1 3 1 3 4 6 4 2 1 3 2 2 1 2 2 2 4 6 5 10 9 9 10 9 8 9 9 7 6 6 6 6 6 6 6 7 9 7 8 9 7 4 4 5 6 5 5 5 6 8 9 12 14 16 15 15 15
4 3 5 4 2 5 4 0 3 3 2 4 4 1 3 4 2 3 1 3 3 1 1 2 4 9 8 9 10 8 7 10 10 7 7 7 6 7 6 6 7 7 8 8 9 8 5 3 3 5 6 4 4 4 6 7 9 12 13 13 13 14 15
3 3 7 3 5 2 5 3 3 3 2 1 2 2 1 1 1 3 2 1 4 3 4 6 8 11 11 10 8 8 9 10 10 8 8 7 6 6 6 6 6 5 7 11 11 8 4 4 5 5 4 3 3 4 6 7 9 11 10 10 13 16 16
2 5 4 0 5 4 3 2 2 2 3 3 1 2 3 3 2 2 1 1 3 4 6 10 12 13 13 11 8 9 10 11 10 9 8 7 7 6 6 6 4 4 9 13 12 8 6 6 5 4 2 2 2 5 7 8 10 11 9 9 14 17 15
3 2 2 4 5 2 2 3 2 2 1 1 1 1 2 4 3 2 2 2 5 5 5 10 13 12 12 12 10 9 10 11 10 10 9 7 7 6 5 5 5 6 10 13 12 10 8 6 4 3 1 1 3 5 7 8 11 11 9 10 14 15 15
2 3 6 6 8 6 5 3 2 2 1 3 2 3 3 2 4 4 4 3 6 5 4 9 11 10 10 11 11 10 10 11 10 9 8 7 7 6 5 5 5 6 10 13 13 10 8 6 4 3 1 0 2 5 6 8 10 10 9 11 14 15 15
4 6 5 4 7 7 6 3 2 4 3 5 5 4 4 0 1 1 3 1 6 6 4 7 9 10 10 10 11 11 9 10 10 8 7 7 7 6 6 5 5 8 11 13 11 9 7 5 4 2 1 1 2 4 5 7 10 9 8 10 13 14 15
3 5 4 3 3 4 5 1 1 4 3 3 5 5 3 3 1 1 2 2 6 6 3 6 8 9 9 8 10 11 9 8 8 9 8 7 6 6 6 5 5 8 10 11 9 7 6 5 3 2 2 1 2 3 4 7 9 8 7 10 12 13 15
5 6 6 5 5 3 2 3 3 2 4 5 3 2 3 1 4 5 4 3 6 5 2 5 6 7 8 7 8 10 10 8 8 8 7 7 6 6 5 5 5 6 7 8 6 3 4 5 3 2 2 1 2 3 5 8 9 7 6 9 11 13 15
2 2 3 3 2 1 1 3 4 1 4 7 3 2 4 1 4 6 5 5 6 5 2 5 6 7 8 7 6 7 8 9 8 8 6 6 6 6 7 6 5 5 5 4 3 4 4 4 2 3 3 2 3 4 6 7 8 6 5 8 11 13 15
7 7 7 5 2 2 2 4 5 5 4 6 5 3 2 4 4 3 5 6 4 4 7 10 9 8 9 8 8 8 7 8 7 7 6 6 6 6 6 5 4 4 3 3 5 6 4 4 4 4 3 3 3 5 6 7 8 6 5 8 12 13 14
7 8 7 5 2 3 5 5 5 8 7 4 6 4 5 5 5 4 8 6 6 7 11 14 12 10 10 9 9 9 8 8 7 6 6 6 5 4 5 5 4 5 4 4 6 6 6 6 5 4 3 3 4 5 5 6 7 6 5 9 12 12 13
5 6 5 4 2 3 4 4 6 9 8 5 5 7 7 7 6 8 9 9 10 10 11 14 14 12 11 10 9 8 8 8 7 7 6 5 5 6 5 5 5 6 5 5 6 7 7 5 4 3 3 2 3 4 5 6 6 5 7 10 11 11 13
3 3 3 2 1 3 4 6 8 10 10 9 7 7 7 9 9 10 9 9 11 10 8 10 8 8 8 7 7 8 9 9 8 7 7 6 6 6 6 7 7 7 6 7 8 9 6 4 3 3 2 1 1 4 6 5 4 6 8 10 10 11 13
5 5 3 3 3 3 4 7 8 9 9 8 6 5 5 7 8 8 5 5 8 7 4 4 6 9 9 8 9 8 8 8 8 7 7 7 7 7 7 8 8 7 7 7 9 9 7 5 4 2 1 1 1 4 6 5 5 6 8 10 11 12 13
4 5 4 5 6 6 5 6 6 7 7 5 5 5 3 5 5 2 2 3 6 4 2 6 8 10 11 10 9 7 7 7 8 8 8 7 8 9 9 9 8 7 6 6 8 9 8 7 5 2 2 2 3 5 6 7 6 7 8 9 11 13 12
4 5 1 2 4 5 5 6 4 5 6 6 7 5 1 3 3 5 4 5 5 4 7 9 9 10 10 9 8 8 8 8 8 9 9 8 9 10 9 9 8 7 7 9 11 10 9 7 5 4 4 4 5 6 6 7 6 6 8 9 10 11 10
4 6 2 3 3 3 6 7 4 4 5 7 9 6 5 5 3 5 4 4 6 7 8 11 11 10 9 9 8 8 9 9 8 9 9 9 9 9 8 8 7 7 9 12 12 10 9 8 6 5 5 5 6 7 7 6 6 7 7 8 9 10 9
3 3 4 2 5 6 7 7 6 7 7 7 8 6 4 4 4 8 8 8 9 7 7 9 9 9 8 8 8 8 9 10 9 9 9 8 8 8 7 7 7 9 12 13 13 11 10 9 7 6 7 7 7 8 8 8 8 8 8 8 10 11 10
2 1 2 4 7 6 6 8 8 7 6 4 4 3 4 5 3 9 11 8 7 7 6 6 7 7 6 6 6 7 9 9 10 10 9 8 8 8 9 10 10 13 15 15 14 13 11 10 9 9 9 9 8 9 10 10 10 9 9 10 12 12 11
3 3 3 3 4 6 6 7 7 4 3 4 5 3 2 6 4 5 11 9 7 7 8 7 6 6 6 3 4 6 7 8 9 9 9 9 9 10 12 14 15 16 17 16 15 13 11 11 11 11 11 10 10 10 10 11 12 11 11 11 11 11 12
3 4 2 2 3 5 6 8 8 5 5 5 5 5 1 6 7 2 10 11 9 8 8 7 6 6 6 3 5 6 7 8 8 8 7 9 12 13 15 15 15 16 17 16 14 12 11 11 12 11 10 11 12 12 11 11 12 12 12 11 11 12 12
3 5 3 3 4 5 7 9 8 7 5 3 6 5 3 5 5 1 8 11 10 10 9 8 7 6 4 5 6 6 9 9 7 6 5 7 12 15 17 16 16 17 18 15 13 11 10 10 11 12 12 12 13 14 13 11 11 12 12 11 11 11 11
4 5 4 3 3 5 7 7 6 6 3 4 6 1 7 6 3 1 7 10 9 9 8 6 6 6 5 5 5 6 7 4 4 7 8 9 12 14 14 15 16 17 17 14 12 12 12 11 11 12 12 13 14 14 12 10 10 12 12 12 12 11 10
6 6 4 3 3 5 6 5 3 4 1 4 3 6 6 4 3 3 7 8 7 7 7 5 4 5 6 5 3 3 6 5 5 9 13 14 15 15 15 16 16 17 15 13 14 14 14 13 11 11 12 13 13 13 11 11 12 12 12 12 13 12 11
4 5 4 2 4 5 6 4 2 3 1 3 6 6 4 4 6 6 6 6 6 6 6 5 5 4 4 4 4 5 6 7 8 10 12 11 11 13 15 16 16 15 13 12 14 15 15 13 12 11 12 13 14 13 13 13 13 13 12 13 12 10 10
3 3 3 2 4 6 5 3 2 3 2 6 5 3 3 4 6 6 5 5 6 6 4 4 4 5 4 4 5 6 7 8 8 9 9 9 10 13 15 16 16 15 13 13 14 16 15 13 12 12 14 15 14 13 13 12 12 12 13 13 12 11 11
4 4 5 5 5 6 5 5 3 3 5 6 6 6 5 4 4 5 4 3 4 6 7 5 5 5 5 4 5 6 7 7 7 7 8 11 14 16 17 18 17 16 15 16 16 16 15 13 13 14 14 14 14 13 12 11 10 10 12 13 12 11 11
4 5 6 5 4 5 4 4 5 7 6 5 6 7 5 3 4 4 4 4 5 5 7 5 3 3 4 4 4 6 7 7 8 8 11 15 18 19 19 20 19 17 17 18 17 15 15 14 14 14 14 14 15 13 12 12 12 12 13 13 12 10 9
3 2 2 3 2 2 3 3 4 5 5 4 4 5 5 4 4 4 5 6 5 5 6 5 3 4 4 4 5 5 5 6 7 9 12 16 18 19 18 18 18 18 18 18 17 16 15 15 14 14 14 14 15 15 14 13 14 14 12 10 9 9 8
3 2 2 1 1 2 1 3 5 5 4 2 2 4 4 2 2 4 5 6 5 4 4 5 4 5 4 3 5 4 3 6 6 7 9 12 14 15 15 16 18 18 17 17 17 17 16 14 13 13 13 13 14 15 13 11 13 15 12 7 8 8 7
3 4 3 2 7 8 6 5 5 6 7 7 5 5 5 5 5 5 4 5 5 3 2 2 0 3 3 3 6 5 4 6 6 6 8 11 13 13 15 16 18 19 18 18 17 16 14 13 12 11 12 11 12 12 9 8 11 11 6 6 9 9 5
1 0 2 5 8 8 7 6 5 4 6 7 6 5 6 6 6 6 5 4 5 5 4 3 2 2 3 3 3 3 5 5 5 6 9 12 13 14 16 18 20 21 21 20 17 14 14 14 12 10 10 10 11 8 4 5 7 3 3 7 10 9 5
2 2 3 3 4 3 1 1 3 4 5 7 7 6 7 6 6 6 6 4 4 6 5 5 6 5 2 3 0 4 5 6 8 10 12 13 14 15 17 18 20 21 21 18 16 14 16 15 12 10 10 10 8 6 4 4 4 4 5 6 9 10 8
4 7 7 5 5 4 5 5 5 6 5 6 7 6 6 6 5 5 6 5 5 6 6 6 8 7 3 1 2 4 4 6 10 12 14 15 15 15 17 18 18 19 18 16 15 16 17 16 13 12 12 9 8 8 7 5 5 6 5 5 7 8 8
4 5 6 6 6 5 6 7 6 6 5 7 7 6 6 6 5 5 5 5 6 6 5 5 6 7 4 3 4 5 5 7 10 11 13 15 15 15 17 17 17 17 16 15 16 18 18 16 14 13 12 10 9 10 10 9 7 7 6 6 6 5 5
3 4 6 6 6 7 7 5 4 5 6 7 6 5 6 6 5 5 5 4 5 7 6 3 3 5 5 4 5 7 7 7 8 9 10 10 10 10 12 13 14 14 14 15 16 17 17 16 15 14 13 12 12 12 12 11 9 8 7 7 6 5 5
Wind_Direction
179 167 168 123 111 167 291 29 55 213 170 128 124 254 300 67 63 313 18 91 332 9 14 353 82 113 118 133 142 141 137 136 135 138 146 145 153 166 172 181 189 194 198 182 142 132 129 117 114 125 119 96 73 52 12 356 353 345 341 342 340 341 344
245 184 108 78 104 138 118 276 225 197 87 79 101 120 357 40 72 289 349 144 205 156 92 298 122 125 141 155 151 138 134 140 143 149 156 159 169 171 179 193 190 190 192 170 143 137 135 127 140 137 114 89 76 49 5 356 356 348 347 353 355 351 346
233 12 69 32 326 48 121 181 185 114 93 351 38 111 98 54 273 297 346 169 212 190 174 191 173 161 167 172 159 141 144 150 150 159 167 170 175 175 183 197 198 187 167 155 148 146 151 156 148 128 101 72 57 21 355 348 348 350 355 0 358 350 346
130 24 49 231 292 326 45 59 30 63 148 166 170 155 147 152 213 272 307 206 241 230 196 185 186 180 173 173 168 155 157 161 160 165 170 175 179 180 187 187 178 158 151 154 157 161 167 163 146 121 89 46 18 360 347 339 342 351 0 1 355 348 346
68 67 245 201 196 211 50 51 22 354 11 97 157 248 129 137 150 179 173 228 259 252 197 185 190 186 174 170 166 162 165 167 167 170 171 175 179 182 189 180 160 152 157 163 168 169 166 159 148 127 103 33 1 349 341 337 341 349 358 1 356 348 346
122 207 234 189 166 160 140 141 166 178 146 92 113 290 305 106 135 161 159 219 263 259 191 185 188 180 176 171 160 161 169 168 170 175 173 172 175 182 188 178 165 164 169 174 173 167 164 161 153 142 137 337 345 346 339 335 339 345 353 359 357 350 346
190 240 254 161 155 151 134 148 181 160 138 114 138 231 261 330 37 133 121 173 266 261 195 178 180 176 176 169 157 157 166 170 171 174 174 176 181 186 185 176 173 176 178 177 171 165 165 160 148 151 187 242 347 351 341 336 339 341 346 355 358 353 347
305 305 332 47 76 91 97 343 210 148 156 144 156 185 172 149 195 126 93 247 267 274 208 169 174 172 166 164 157 153 157 167 168 167 173 183 184 184 187 184 178 178 179 177 173 168 161 152 147 171 198 211 12 4 347 342 340 333 338 355 1 357 350
337 337 349 357 350 24 75 282 274 164 128 112 122 129 92 101 212 155 132 232 256 273 198 159 173 169 161 169 164 153 153 159 163 167 174 181 179 182 194 189 175 176 181 183 179 160 147 152 154 160 160 114 34 16 351 343 338 326 335 356 359 354 350
208 251 267 266 278 319 303 281 287 280 134 134 145 120 102 217 228 153 147 219 259 282 212 186 205 184 168 171 160 148 151 152 157 165 171 177 180 187 193 186 178 184 192 182 142 108 137 162 148 132 122 80 33 2 344 342 340 329 333 352 355 351 347
189 197 218 228 172 150 263 272 283 288 232 171 142 99 142 198 188 174 208 206 214 247 212 202 209 190 174 172 158 149 149 150 156 162 168 180 187 194 192 178 171 181 177 141 115 114 145 161 140 122 95 48 13 352 342 341 344 339 329 341 347 344 342
201 191 211 238 197 201 236 253 270 280 271 198 156 191 219 165 136 249 252 199 182 224 214 204 203 188 178 176 164 155 152 154 160 164 170 176 169 163 162 155 164 173 166 149 136 141 154 151 136 114 71 30 6 354 342 338 342 341 333 336 338 337 337
225 197 223 252 228 236 254 265 267 270 273 245 198 215 211 158 166 241 235 193 201 226 221 212 203 182 174 172 159 151 151 156 164 164 163 155 132 129 142 158 174 176 176 177 166 162 160 147 128 106 71 38 12 351 338 334 332 329 331 334 333 330 335
285 265 274 276 272 294 292 292 285 272 259 242 220 219 202 179 203 233 221 203 218 229 226 219 193 157 153 147 138 145 152 159 165 161 156 148 140 147 160 174 188 189 189 185 171 163 159 148 131 107 75 60 12 349 344 331 312 312 321 328 330 326 330
308 302 324 338 351 342 301 296 295 281 266 253 245 246 213 196 225 242 222 214 243 256 236 182 147 136 138 138 143 153 159 163 163 158 157 156 160 175 185 191 201 199 187 177 166 159 155 156 147 122 118 186 301 337 339 322 306 311 311 316 326 323 323
275 291 342 339 350 1 319 296 285 279 282 272 265 272 246 227 230 190 134 214 251 260 106 113 127 134 136 141 148 152 162 167 159 159 167 172 177 187 195 200 202 191 177 168 162 158 161 168 168 165 188 215 282 311 323 320 309 308 306 311 323 321 319
260 281 348 11 12 6 306 266 237 267 291 285 286 304 277 225 164 134 174 222 216 180 127 118 127 136 142 154 160 160 167 169 165 169 178 185 188 191 197 201 196 182 171 163 162 167 177 186 191 193 201 237 276 284 303 315 305 302 309 317 325 322 315
257 285 22 53 5 321 258 240 219 251 272 270 274 262 203 202 161 135 160 164 153 159 149 143 152 161 160 164 169 165 163 165 173 183 187 190 193 196 199 198 188 175 168 166 170 180 191 195 198 205 221 249 269 268 274 288 293 300 309 319 326 322 315
214 304 41 23 266 243 244 266 275 269 263 255 250 238 221 228 174 129 124 141 155 162 160 156 160 165 161 160 169 175 174 173 175 183 192 193 188 192 197 191 181 172 168 170 177 186 194 199 203 216 232 245 257 259 257 264 277 287 294 307 315 312 315
173 88 103 215 244 256 287 300 294 284 284 266 233 251 321 306 209 144 133 146 160 151 151 158 154 150 147 151 180 196 192 184 175 175 186 188 182 187 186 177 176 177 177 180 185 188 197 207 215 229 240 242 245 252 253 257 265 273 283 299 308 309 314
169 163 197 238 281 303 309 293 278 277 278 242 202 183 327 318 290 152 137 142 155 150 146 152 148 123 104 118 231 229 207 198 190 181 182 183 180 182 179 176 178 182 184 186 187 191 203 216 227 237 241 238 236 242 252 256 259 265 275 288 299 305 310
148 147 228 300 291 278 263 253 261 272 251 220 153 112 1 313 311 206 146 145 150 147 142 150 146 114 108 164 245 236 208 206 201 188 182 177 172 173 175 177 178 182 186 186 187 195 209 224 236 240 238 234 233 237 248 255 257 263 269 280 296 303 306
145 154 204 223 215 242 242 241 264 279 251 186 96 70 306 292 310 339 142 145 148 150 154 157 143 129 158 221 249 226 208 208 195 180 173 168 172 176 178 180 182 183 185 185 186 195 211 225 233 233 230 231 233 239 248 256 261 263 263 274 292 299 300
176 170 201 220 220 248 238 230 257 273 259 83 82 248 261 259 273 87 130 145 155 156 155 151 144 154 185 224 247 216 190 179 166 167 168 171 178 182 182 186 188 184 181 181 183 192 209 221 223 222 222 225 230 238 247 252 255 259 265 275 284 288 296
176 175 202 244 250 251 238 231 277 292 340 77 133 218 233 217 201 156 127 140 160 161 155 157 174 197 208 219 224 159 136 139 168 177 180 182 183 182 183 185 183 178 180 186 191 200 213 222 222 221 222 225 232 240 244 245 249 259 272 278 278 285 299
173 171 189 248 270 253 225 210 332 359 133 199 220 220 200 157 158 151 130 139 157 161 166 181 194 205 208 183 141 134 151 169 181 184 181 175 170 173 177 177 175 174 179 188 198 208 216 218 218 220 224 231 241 246 245 250 259 268 276 276 272 283 300
155 157 178 213 255 252 216 158 27 23 155 203 212 180 174 176 159 142 131 149 161 154 163 201 196 169 166 158 147 162 179 177 176 179 172 159 157 164 168 173 178 180 181 189 201 209 210 208 211 218 225 234 243 245 249 265 279 274 270 272 270 278 292
145 167 206 210 214 220 187 141 154 201 190 190 174 155 174 202 174 139 125 162 184 159 152 178 186 170 180 189 173 175 186 183 176 173 164 160 164 168 173 181 187 187 187 192 201 207 207 208 215 223 231 237 242 247 261 287 300 285 276 276 272 274 286
171 177 206 212 198 198 181 151 175 192 185 174 161 148 151 192 195 158 139 166 188 163 146 151 168 191 215 221 199 186 186 184 178 174 173 170 170 174 181 186 189 193 196 196 199 205 208 212 221 230 237 241 245 255 275 297 306 298 290 283 270 263 274
219 183 181 190 176 178 174 147 147 163 168 177 167 138 135 189 204 165 146 158 165 155 140 137 173 225 231 239 246 223 186 174 173 171 173 176 177 179 180 182 190 199 200 196 197 202 211 223 234 240 243 246 250 262 280 300 314 312 298 278 255 244 258
180 216 284 277 42 26 73 89 74 73 81 92 120 119 124 161 160 136 141 147 147 147 140 143 194 238 231 230 261 261 187 170 174 169 170 179 186 188 185 188 195 197 192 191 198 208 223 237 244 243 245 251 261 274 287 307 323 319 302 264 224 221 252
168 215 259 67 59 37 30 50 64 77 83 79 81 98 104 96 93 103 117 119 115 97 67 94 215 294 291 247 253 252 195 171 173 177 179 181 187 194 197 199 198 194 193 199 207 219 238 251 251 247 248 258 275 285 295 315 321 317 296 219 204 210 244
19 194 111 86 66 41 27 36 53 90 105 99 97 101 95 89 89 85 75 77 92 90 77 91 101 38 342 293 240 180 159 154 157 170 180 183 186 192 196 199 199 198 202 209 214 229 248 253 250 249 250 265 282 283 289 317 315 301 175 192 208 212 233
353 224 182 145 103 96 163 119 112 136 127 109 103 90 78 85 104 107 96 76 73 83 89 107 119 107 32 337 171 157 163 167 166 169 174 178 184 189 193 197 202 205 209 215 223 238 249 248 246 251 253 260 269 260 262 299 279 219 201 220 221 218 238
219 224 212 183 136 148 201 197 170 176 157 110 103 94 89 107 138 135 116 91 67 68 69 84 110 119 104 55 138 163 183 185 177 174 176 178 182 188 192 196 202 209 216 225 234 241 244 244 246 253 255 255 258 258 265 275 249 221 221 231 227 230 248
203 220 204 175 137 151 195 202 185 180 155 112 104 94 91 111 139 137 114 92 89 100 94 82 104 120 121 130 157 169 186 193 187 182 184 187 189 193 199 202 208 214 220 228 234 238 243 248 253 260 262 264 267 268 270 269 257 245 239 238 242 247 248
160 203 194 173 153 162 179 183 154 139 126 113 105 94 90 100 105 95 82 76 99 120 125 116 114 120 119 139 182 190 189 190 190 190 196 203 206 210 213 216 219 222 226 232 237 243 250 257 264 271 275 277 278 276 271 266 262 259 254 252 254 254 252